Dati Storici

Data ora Umidita' aria (%) Temperatura aria (°C) Rad globale (W/m²) Gonioanemometro (°) Tacoanemometro (m/s) Pioggia (mm)
28-10-2012 14:50 85.9 % 6.12 38.317 52.029 8.269 0
28-10-2012 14:40 86 % 6.021 43.726 36.812 5.746 1
28-10-2012 14:30 86.3 % 6.049 59.999 38.844 3.671 0
28-10-2012 14:20 87 % 5.986 63.085 19.695 1.98 0
28-10-2012 14:10 87 % 6.082 61.555 37.082 3.813 0
28-10-2012 14:00 86.9 % 6.091 69.785 137.111 3.671 0
28-10-2012 13:50 86.7 % 6.016 80.372 0.889 5.368 0
28-10-2012 13:40 85.9 % 6.156 100.045 54.956 8.205 0
28-10-2012 13:30 85.5 % 6.224 62.314 73.552 5.939 0
28-10-2012 13:20 86.8 % 6.343 106.385 35.924 3.329 0
28-10-2012 13:10 85.8 % 6.379 77.79 67.238 3.904 1
28-10-2012 13:00 83.9 % 6.581 49.073 72.132 3.095 0
28-10-2012 12:50 81.9 % 6.87 65.531 50.853 3.42 1
28-10-2012 12:40 79.7 % 7.369 133.922 39.232 6.428 0
28-10-2012 12:30 81.2 % 7.504 100.476 25.394 1.73 0
28-10-2012 12:20 82.5 % 7.488 148.464 15.117 6.197 0
28-10-2012 12:10 82.1 % 7.373 180.177 48.412 1.323 0
28-10-2012 12:00 79.7 % 7.278 173.381 75.33 3.821 0
28-10-2012 11:50 79.4 % 7.616 130.576 18.406 7.185 0
28-10-2012 11:40 79.2 % 7.569 195.455 52.831 7.858 0

I dati sono presentati in modo automatico a scopo informativo. In seguito a verifica i dati possono subire modifiche o essere invalidati e non riportati negli archivi definitivi.